This is the latest recevied weather packets stored in our database for station/object OZ0AJ-13. If no packets are shown the sender has not sent any weather packets the latest 10 day(s).
| Time | Temp. | Humidity | Pressure | Rain* | Wind** | Luminosity | Snow |
|---|---|---|---|---|---|---|---|
| 1777587621 | 8.33° C | 70% | 1030 hPa | 0 mm | - | - | - |
| 1777587017 | 8.33° C | 69% | 1030 hPa | 0 mm | - | - | - |
| 1777586433 | 8.89° C | 68% | 1029.9 hPa | 0 mm | - | - | - |
| 1777585829 | 8.89° C | 67% | 1030 hPa | 0 mm | - | - | - |
| 1777585225 | 9.44° C | 66% | 1030 hPa | 0 mm | - | - | - |
| 1777584622 | 9.44° C | 66% | 1030.1 hPa | 0 mm | - | - | - |
| 1777584018 | 9.44° C | 65% | 1030.2 hPa | 0 mm | - | - | - |
| 1777583434 | 9.44° C | 64% | 1030.1 hPa | 0 mm | - | - | - |
| 1777582830 | 10° C | 63% | 1030.3 hPa | 0 mm | - | - | - |
| 1777582226 | 10° C | 61% | 1030.1 hPa | 0 mm | - | - | - |
| 1777581622 | 10.56° C | 60% | 1030.3 hPa | 0 mm | - | - | - |
| 1777581018 | 10.56° C | 58% | 1030.3 hPa | 0 mm | - | - | - |
| 1777580434 | 11.11° C | 56% | 1030.3 hPa | 0 mm | - | - | - |
| 1777579830 | 11.11° C | 54% | 1030.4 hPa | 0 mm | - | - | - |
| 1777579227 | 11.67° C | 52% | 1030.5 hPa | 0 mm | - | - | - |
| 1777578623 | 11.67° C | 51% | 1030.4 hPa | 0 mm | - | - | - |
| 1777578019 | 12.22° C | 51% | 1030.4 hPa | 0 mm | - | - | - |
| 1777577435 | 12.78° C | 49% | 1030.5 hPa | 0 mm | - | - | - |
| 1777576831 | 12.78° C | 48% | 1030.4 hPa | 0 mm | - | - | - |
| 1777576227 | 13.33° C | 47% | 1030.3 hPa | 0 mm | - | - | - |
| 1777575623 | 13.89° C | 47% | 1030.3 hPa | 0 mm | - | - | - |
| 1777575019 | 14.44° C | 47% | 1030.3 hPa | 0 mm | - | - | - |
| 1777574435 | 15° C | 46% | 1030.2 hPa | 0 mm | - | - | - |
| 1777573831 | 16.11° C | 42% | 1030.1 hPa | 0 mm | - | - | - |
| 1777573227 | 17.22° C | 39% | 1030.2 hPa | 0 mm | - | - | - |
* Rain latest hour (hover to see other rain measurements)
** Current wind speed in m/s (hover to see current wind gust speed)